Location: Palmerston North
(40.3500°S, 175.6170°E)
Time: 02:24:09
(UTC+12:00)

ADEOS Rocket - Pass Details

Date: 24 January 2019
Orbit: 858 x 1307 km, 98.7° (Epoch: 17 April)

Event Time Altitude Azimuth Distance (km) Brightness Sun altitude
Exits shadow 21:18:51 - 51° (NE) 2,758 4.7 -6.7°
Reaches altitude 10° 21:19:26 10° 53° (NE) 2,553 4.5 -6.8°
Maximum altitude 21:24:16 31° 113° (ESE) 1,488 3.7 -7.6°
Drops below altitude 10° 21:29:04 10° 173° (S) 2,530 5.6 -8.3°
Sets 21:31:42 0° 183° (S) 3,488 6.5 -8.8°
